Regional Weather Roundup
Issued by NWS Charleston, SC

Current Version | Previous Version | Graphics & Text | Print | Product List | Glossary On
Versions: 1 2 3 4 5 6 7 8 9 10 11 12 13 14 15 16 17 18 19 20 21 22 23 24 25 26 27 28 29 30 31 32 33 34 35 36 37 38 39 40 41 42 43 44 45 46 47 48 49 50
000 ASUS42 KCHS 272113 RWRCHS REGIONAL WEATHER ROUNDUP NATIONAL WEATHER SERVICE CHARLESTON SC 500 PM EDT FRI MAY 27 2016 NOTE: "FAIR" INDICATES FEW OR NO CLOUDS BELOW 12,000 FEET WITH NO SIGNIFICANT WEATHER AND/OR OBSTRUCTIONS TO VISIBILITY. NOT ALL STATIONS ARE QUALITY CONTROLLED. USE DATA WITH CAUTION... ESPECIALLY DEWPOINT OBSERVATIONS. SCZ027-030-031-034>040-042>050-272200- ...SOUTHEAST SOUTH CAROLINA... CITY SKY/WX TMP DP RH WIND PRES REMARKS N CHARLESTON MOSUNNY 84 60 44 SE15G21 30.08F WATERFRONT PRK N/A 82 65 56 E9 30.08F MOUNT PLEASANT FAIR 82 63 51 E7 30.10S JOHNS ISLAND FAIR 81 64 57 E14 30.09F PINOPOLIS N/A 90 55 31 VRB3 30.01F MONCKS CORNER FAIR 82 52 34 S9G16 30.07F SUMMERVILLE FAIR 88 55 33 CALM 30.08F BEAUFORT MCAS MOSUNNY 82 62 50 E12 30.08S BEAUFORT ARPT FAIR 81 59 47 SE9 30.08S HILTON HEAD IS SUNNY 81 66 61 NE7 30.10S WALTERBORO PTCLDY 88 54 31 E13 30.08S ALLENDALE FAIR 84 59 42 SE10 30.05F ...SOUTHERN MIDLANDS AND PEE DEE... CITY SKY/WX TMP DP RH WIND PRES REMARKS GEORGETOWN FAIR 79 59 50 E13 30.12S KINGSTREE FAIR 86 52 30 E10G16 30.09S ORANGEBURG MOSUNNY 87 55 33 E9 30.07F BARNWELL FAIR 88 61 40 E3 30.07S AIKEN FAIR 84 59 42 E9 30.10S MANNING FAIR 86 55 35 SE8 30.08S COLUMBIA MOSUNNY 88 62 41 SE9 30.06F SUMTER MOSUNNY 87 58 37 SE12 30.05F FLORENCE MOSUNNY 86 60 41 SE8 30.08F MYRTLE BEACH SUNNY 81 59 47 SE12 30.14S N MYRTLE BEACH SUNNY 79 62 56 SE10 30.12S $$ GAZ063-065-086>088-099>101-113>116-118-119-134>141-150-272200- ...SOUTHEAST GEORGIA... CITY SKY/WX TMP DP RH WIND PRES REMARKS SAVANNAH ARPT MOSUNNY 83 62 49 E10 30.08S HUNTER AAF SUNNY 82 66 59 E12 30.05F FORT STEWART SUNNY 83 62 48 SE9 30.04F STATESBORO SUNNY 87 60 40 SE8 30.06F SYLVANIA CLEAR 87 57 35 SE9 30.07F CLAXTON FAIR 85 61 43 NE10G17 30.05S ...CSRA...CENTRAL AND FAR SOUTHEAST GEORGIA... CITY SKY/WX TMP DP RH WIND PRES REMARKS THOMSON PTSUNNY 86 65 49 E6 30.10F AUGUSTA-BUSH MOSUNNY 87 62 43 SE9 30.04F AUGUSTA-DANIEL MOSUNNY 86 61 42 SE6 30.06F SWAINSBORO FAIR 88 54 31 E7 30.05F VIDALIA MOSUNNY 86 59 39 E6 30.04F EASTMAN FAIR 89 53 28 E8 30.05F HAZLEHURST FAIR 86 56 35 CALM 30.02F ALMA MOSUNNY 82 62 50 SE8 30.02F WAYCROSS MOSUNNY 85 63 46 E12 30.03S JESUP MOCLDY 79 61 53 SE12G18 30.05F BAXLEY FAIR 86 61 42 SE6 30.03F BRUNSWICK CLOUDY 84 66 54 E14 30.07S SAINT SIMONS SUNNY 81 66 60 E15G21 30.06S $$ SCZ027-028-034-036>038-045-046-048>050-GAZ119-141-272200- ...LAKE AND SUPPLEMENTAL COASTAL OBSERVATIONS... STATION/POSITION TIME TEMP WIND PRES WAVE SWELL AIR SEA DIR/SP/G HT/PER HT/PER/DIR (UTC) (F) (DEG/KT/KT) (MB) (FT/S) (FT/S/D) WINYAH BAY 1945 77 90/ 9 1019.0 LAKE MURRAY 2000 92 CALM 1017.6F ACE BASIN NERRS NOT AVBL FORT PULASKI 2000 76 77 70/ 15/ 18 1019.2F SAPELO ISLAND 2000 82 70/ 10 1018.0F $$ ANZ835-935-AMZ111-154-330-350-352-354-370-450-454-472-272200- ...C-MAN AND BUOY OBSERVATIONS... STATION/POSITION TIME TEMP WIND PRES WAVE SWELL AIR SEA DIR/SP/G HT/PER HT/PER/DIR (UTC) (F) (DEG/KT/KT) (MB) (FT/S) (FT/S/D) BUOY 41004 2050 77 77 40/ 14/ 17 1018.5S 3/ 7 2/ 7 BUOY 41008 2050 76 77 60/ 14/ 16 1018.0F 3/ 6 2/110/ 8 FOLLY BEACH CMAN 2100 78 70/ 13/ 14 1019.4F CAPERS NEARSHORE 2008 76 77 70/ 14/ 17 1019.2F FRIPP NEARSHORE 2008 76 77 70/ 12/ 17 1018.3F STATION/POSITION TIME TEMP WIND PRES WAVE SWELL AIR SEA DIR/SP/G HT/PER HT/PER/DIR (UTC) (F) (DEG/KT/KT) (MB) (FT/S) (FT/S/D) 5E ST. MARYS GA 2001 78 N/A 3/ 4 FRYING PAN BUOY 2000 76 76 70/ 10/ 14 1019.5F BUOY 41025 2050 76 78 120/ 10/ 12 1020.7F 3/ 7 2/130/ 7 CAPE LOOKOUT NC 2100 76 110/ 8/ 9 1020.0F BUOY 41002 2050 78 78 80/ 19/ 23 1017.6F 5/ 5 2/100/ 8 BUOY 41010 2020 78 78 50/ 16/ 17 1015.7F ST AUGUSTINE FL 2100 78 80 100/ 11/ 12 1017.8F $$

USA.gov is the U.S. government's official web portal to all federal, state and local government web resources and services.